Terug naar catalogus

OPS 0856 DEB

LostPO
NORAD 23829·DEBRIS·🇺🇸 United States

Gelanceerd Aug 19, 1966 vanaf Vandenberg Space Force Base

Loading…

Volgende Passages (komende 24 uur)

TLE

VerouderdSource: Space-Track

Epoch: May 12, 2022, 04:51 UTC

1 23829U 66077F   22132.20221353  .00000008  00000-0  00000+0 0  9995
2 23829  90.1030 212.4341 1637911  83.5498 288.8390  8.65541044912648

Volg OPS 0856 DEB in realtime met AllMySat

Download on the App Store